TimeCST,TemperatureF,Dew PointF,Humidity,Sea Level PressureIn,VisibilityMPH,Wind Direction,Wind SpeedMPH,Gust SpeedMPH,PrecipitationIn,Events,Conditions,WindDirDegrees,DateUTC
12:55 AM,35.1,28.0,76,29.92,8.0,ENE,5.8,-,N/A,,Mostly Cloudy,70,2013-12-02 06:55:00
1:55 AM,35.1,28.0,76,29.91,8.0,East,4.6,-,N/A,,Mostly Cloudy,80,2013-12-02 07:55:00
2:55 AM,35.1,28.9,78,29.89,7.0,East,6.9,-,N/A,,Clear,100,2013-12-02 08:55:00
3:55 AM,36.0,28.9,76,29.86,7.0,East,5.8,-,N/A,,Partly Cloudy,100,2013-12-02 09:55:00
4:55 AM,35.1,28.9,78,29.85,7.0,East,6.9,-,N/A,,Mostly Cloudy,100,2013-12-02 10:55:00
5:55 AM,34.0,28.9,82,29.83,6.0,East,5.8,-,N/A,,Haze,100,2013-12-02 11:55:00
6:55 AM,34.0,30.0,85,29.83,5.0,SE,4.6,-,N/A,,Overcast,140,2013-12-02 12:55:00
7:31 AM,35.1,30.0,82,29.79,6.0,ESE,4.6,-,N/A,,Haze,110,2013-12-02 13:31:00
7:55 AM,35.1,30.0,82,29.82,4.0,ESE,5.8,-,N/A,,Haze,110,2013-12-02 13:55:00
8:55 AM,37.9,32.0,79,29.80,5.0,SE,8.1,-,N/A,,Haze,130,2013-12-02 14:55:00
9:55 AM,39.9,32.0,73,29.77,5.0,SSE,12.7,-,N/A,,Haze,160,2013-12-02 15:55:00
10:55 AM,43.0,34.0,71,29.77,7.0,South,4.6,-,N/A,,Mostly Cloudy,180,2013-12-02 16:55:00
11:55 AM,48.0,37.0,66,29.73,7.0,SSE,8.1,-,N/A,,Overcast,150,2013-12-02 17:55:00
12:55 PM,51.1,39.0,63,29.70,8.0,SSE,9.2,-,N/A,,Clear,160,2013-12-02 18:55:00
1:55 PM,54.0,39.9,59,29.68,9.0,South,11.5,17.3,N/A,,Partly Cloudy,170,2013-12-02 19:55:00
2:55 PM,54.0,39.9,59,29.65,10.0,South,11.5,-,N/A,,Clear,180,2013-12-02 20:55:00
3:55 PM,53.1,39.9,61,29.65,10.0,South,11.5,-,N/A,,Clear,170,2013-12-02 21:55:00
4:55 PM,48.9,39.9,71,29.65,8.0,SSW,5.8,-,N/A,,Clear,210,2013-12-02 22:55:00
5:55 PM,45.0,39.9,82,29.66,8.0,South,9.2,-,N/A,,Clear,190,2013-12-02 23:55:00
6:55 PM,45.0,41.0,86,29.66,7.0,SSW,6.9,-,N/A,,Clear,200,2013-12-03 00:55:00
7:55 PM,43.0,39.9,89,29.68,6.0,SSW,6.9,-,N/A,,Clear,210,2013-12-03 01:55:00
8:55 PM,43.0,39.9,89,29.67,5.0,SSW,4.6,-,N/A,,Clear,210,2013-12-03 02:55:00
9:55 PM,42.1,39.0,89,29.66,4.0,SSW,6.9,-,N/A,,Clear,200,2013-12-03 03:55:00
10:55 PM,43.0,39.9,89,29.66,5.0,SSW,6.9,-,N/A,,Clear,210,2013-12-03 04:55:00
11:55 PM,43.0,41.0,93,29.65,5.0,SSW,4.6,-,N/A,,Clear,200,2013-12-03 05:55:00